Chippewa, MI

4:51 AM EDT on October 17, 2019 (GMT -0400)
Chippewa County International

Weather History for KCIU - August, 2019

Change the Weather History Date:

Sunday, August 25, 2019

  Actual Average Record
Temperature  
Mean Temperature 62 °F -  
Max Temperature 77 °F 74 °F 87 °F (2012)
Min Temperature 48 °F 50 °F 35 °F (1984)
Degree Days  
Heating Degree Days 4    
Growing Degree Days 12 (Base 50)    
Moisture  
Dew Point 53 °F    
Average Humidity 79    
Maximum Humidity 100    
Minimum Humidity 48    
Precipitation  
Precipitation 0.00 in - - ()
Sea Level Pressure  
Sea Level Pressure 30.25 in    
Wind  
Wind Speed 6 mph ()    
Max Wind Speed 17 mph    
Max Gust Speed 26 mph    
Visibility 8.3 miles    
Events Fog    
Averages and records for this station are not official NWS values.
T = Trace of Precipitation, MM = Missing Value Source: Averaged Metar Reports

Daily Weather History Graph

Daily Weather History Graph

Search for Another Location

Airport or City:

Astronomy

Aug. 25, 2019 Rise Set
Actual Time 6:49 AM EDT 8:29 PM EDT
Civil Twilight 6:17 AM EDT 9:01 PM EDT
Nautical Twilight 5:38 AM EDT 9:40 PM EDT
Astronomical Twilight 4:56 AM EDT 10:21 PM EDT
Moon 1:13 AM EDT (8/25) 5:01 PM EDT (8/25)
Length of Visible Light 14h 44m
Length of Day
13h 40m
Waning Crescent, 29% of the Moon is Illuminated
Aug 25
Waning Crescent
Aug 30
New
Sep 5
First Quarter
Sep 14
Full
Sep 21
Last Quarter

Hourly Weather History & Observations

Time (EDT) Temp. Dew Point Humidity Pressure Visibility Wind Dir Wind Speed Gust Speed Precip Events Conditions
12:56 AM 54.0 °F 52.0 °F 93% 30.29 in 10.0 mi SE 4.6 mph - N/A   Clear
1:56 AM 53.1 °F 51.1 °F 93% 30.28 in 10.0 mi SE 3.5 mph - N/A   Clear
2:56 AM 52.0 °F 52.0 °F 100% 30.27 in 10.0 mi SE 3.5 mph - N/A   Clear
3:56 AM 51.1 °F 48.9 °F 92% 30.29 in 10.0 mi Calm Calm - N/A   Clear
4:56 AM 51.1 °F 50.0 °F 96% 30.29 in 10.0 mi Calm Calm - N/A   Clear
5:56 AM 48.0 °F 48.0 °F 100% 30.29 in 8.0 mi SE 4.6 mph - N/A   Clear
6:56 AM 50.0 °F 50.0 °F 100% 30.30 in 2.0 mi SE 5.8 mph - N/A   Clear
6:58 AM 50.0 °F 50.0 °F 100% 30.29 in 0.8 mi SE 5.8 mph - N/A   Clear
7:09 AM 50.0 °F 50.0 °F 100% 30.30 in 1.2 mi SE 4.6 mph - N/A   Clear
7:13 AM 50.0 °F 50.0 °F 100% 30.30 in 0.5 mi ESE 4.6 mph - N/A Fog Fog
7:20 AM 51.8 °F 51.8 °F 100% 30.30 in 1.0 mi SE 5.8 mph - N/A   Clear
7:22 AM 51.8 °F 51.8 °F 100% 30.30 in 2.5 mi ESE 4.6 mph - N/A   Clear
7:29 AM 51.8 °F 51.8 °F 100% 30.29 in 10.0 mi ESE 4.6 mph - N/A   Clear
7:56 AM 55.0 °F 54.0 °F 96% 30.30 in 10.0 mi ESE 4.6 mph - N/A   Clear
8:56 AM 59.0 °F 55.0 °F 87% 30.30 in 10.0 mi ESE 6.9 mph - N/A   Clear
9:56 AM 64.9 °F 55.9 °F 73% 30.30 in 10.0 mi SE 9.2 mph - N/A   Clear
10:56 AM 68.0 °F 55.9 °F 65% 30.28 in 10.0 mi SSE 10.4 mph - N/A   Clear
11:14 AM 69.8 °F 55.4 °F 60% 30.28 in 10.0 mi SSE 11.5 mph - N/A   Mostly Cloudy
11:45 AM 68.0 °F 55.4 °F 64% 30.28 in 10.0 mi Variable 6.9 mph - N/A   Mostly Cloudy
11:56 AM 70.0 °F 55.0 °F 59% 30.27 in 10.0 mi SSE 15.0 mph 23.0 mph N/A   Scattered Clouds
12:56 PM 71.1 °F 55.0 °F 57% 30.25 in 10.0 mi SSE 8.1 mph 19.6 mph N/A   Partly Cloudy
1:56 PM 73.9 °F 53.1 °F 48% 30.24 in 10.0 mi South 12.7 mph 21.9 mph N/A   Scattered Clouds
2:56 PM 75.0 °F 54.0 °F 48% 30.22 in 10.0 mi SSE 12.7 mph 24.2 mph N/A   Mostly Cloudy
3:56 PM 75.0 °F 54.0 °F 48% 30.20 in 10.0 mi SE 15.0 mph - N/A   Mostly Cloudy
4:56 PM 75.0 °F 55.0 °F 50% 30.18 in 10.0 mi SE 17.3 mph 24.2 mph N/A   Scattered Clouds
5:56 PM 73.9 °F 54.0 °F 50% 30.17 in 10.0 mi SE 15.0 mph 23.0 mph N/A   Clear
6:56 PM 72.0 °F 52.0 °F 49% 30.16 in 10.0 mi SE 16.1 mph 26.5 mph N/A   Clear
7:56 PM 66.9 °F 52.0 °F 59% 30.14 in 10.0 mi SE 16.1 mph - N/A   Clear
8:56 PM 64.0 °F 55.0 °F 73% 30.14 in 10.0 mi SE 9.2 mph - N/A   Clear
9:56 PM 62.1 °F 55.9 °F 80% 30.14 in 10.0 mi SE 11.5 mph - N/A   Clear
10:56 PM 61.0 °F 55.9 °F 83% 30.14 in 10.0 mi SE 11.5 mph - N/A   Clear
11:56 PM 60.1 °F 57.0 °F 90% 30.13 in 10.0 mi SE 10.4 mph - N/A   Clear